EW4276 Weather Reports


Display with metric or nautical units.
time (UTC)temp
F
wind
direction
speed
MPH
gust
MPH
rain 1hr
in
rain 24hr
in
rain mn
in
humidity
%
barometer
mb
20260506212335 63 290 6.0 10.0 0.01 0.07 0.07 86 1008.0
20260506211826 63 293 4.0 9.0 0.01 0.07 0.07 86 1008.0
20260506211317 63 295 5.0 11.0 0.01 0.07 0.07 86 1008.0
20260506210851 64 279 6.0 17.0 0.01 0.07 0.07 85 1007.8
20260506210321 64 300 10.0 15.0 0.01 0.07 0.07 84 1007.9
20260506205815 65 269 9.0 14.0 0.01 0.07 0.07 81 1007.8
20260506205328 67 307 5.0 9.0 0.00 0.06 0.06 78 1007.8
20260506204821 67 292 3.0 5.0 0.00 0.06 0.06 79 1007.5
20260506204333 67 288 2.0 4.0 0.00 0.06 0.06 79 1007.4
20260506203845 68 290 1.0 3.0 0.00 0.06 0.06 78 1007.4
20260506203316 68 310 1.0 3.0 0.00 0.06 0.06 77 1007.5
20260506202827 68 296 0.0 5.0 0.00 0.06 0.06 78 1007.4
20260506202339 68 285 0.0 5.0 0.00 0.06 0.06 78 1007.3
20260506201830 68 307 2.0 4.0 0.00 0.06 0.06 77 1007.3
20260506201342 68 306 2.0 4.0 0.00 0.06 0.06 79 1007.3
20260506200817 67 144 1.0 3.0 0.00 0.06 0.06 82 1007.3
20260506200329 67 134 0.0 2.0 0.00 0.06 0.06 81 1007.4
20260506195820 66 153 0.0 2.0 0.00 0.06 0.06 82 1007.3
20260506195313 66 153 0.0 2.0 0.00 0.06 0.06 84 1007.3
20260506194825 66 153 0.0 2.0 0.00 0.06 0.06 84 1007.1
20260506194316 65 153 1.0 3.0 0.00 0.06 0.06 84 1007.1
20260506193829 65 153 1.0 3.0 0.00 0.06 0.06 84 1007.2
20260506193321 65 150 2.0 3.0 0.00 0.06 0.06 84 1007.3
20260506192817 65 148 0.0 3.0 0.00 0.06 0.06 84 1007.1
20260506192330 65 160 1.0 3.0 0.00 0.06 0.06 83 1007.4
20260506191822 65 160 0.0 3.0 0.00 0.06 0.06 84 1007.3
20260506191313 65 158 2.0 4.0 0.00 0.06 0.06 83 1007.4
20260506190826 65 302 0.0 0.0 0.00 0.06 0.06 83 1007.5
20260506190317 65 302 0.0 2.0 0.00 0.06 0.06 83 1007.5
20260506185848 65 302 0.0 2.0 0.00 0.06 0.06 83 1007.5
20260506185319 65 302 1.0 4.0 0.00 0.06 0.06 84 1007.6
20260506184815 65 302 2.0 5.0 0.00 0.06 0.06 84 1007.5
20260506184347 65 299 3.0 5.0 0.00 0.06 0.06 84 1007.4
20260506183838 64 310 3.0 5.0 0.00 0.06 0.06 84 1007.5
20260506183329 64 315 4.0 6.0 0.00 0.06 0.06 85 1007.4
20260506182822 64 314 4.0 6.0 0.00 0.06 0.06 85 1007.4
20260506182314 64 306 4.0 8.0 0.00 0.06 0.06 84 1007.5
20260506181826 64 9 3.0 9.0 0.00 0.06 0.06 83 1007.4
20260506181319 64 9 5.0 9.0 0.00 0.06 0.06 83 1007.6
20260506180852 65 294 6.0 8.0 0.00 0.06 0.06 82 1007.5
20260506180322 65 312 2.0 5.0 0.00 0.06 0.06 82 1007.5
20260506175835 65 172 2.0 5.0 0.00 0.06 0.06 80 1007.5
20260506175346 65 175 1.0 6.0 0.00 0.06 0.06 81 1007.5
20260506174821 65 177 3.0 10.0 0.00 0.06 0.06 80 1007.5
20260506174313 65 168 4.0 10.0 0.00 0.06 0.06 80 1007.4
20260506173826 65 162 3.0 7.0 0.00 0.06 0.06 81 1007.4
20260506173318 65 171 5.0 7.0 0.00 0.06 0.06 80 1007.4
20260506172830 65 182 1.0 3.0 0.00 0.06 0.06 81 1007.4
20260506172321 65 169 1.0 3.0 0.00 0.06 0.06 82 1007.4
20260506171813 65 174 0.0 3.0 0.00 0.06 0.06 82 1007.4
20260506171325 65 174 1.0 4.0 0.00 0.06 0.06 81 1007.3
20260506170822 65 177 2.0 6.0 0.00 0.06 0.06 81 1007.3
20260506170314 65 174 3.0 7.0 0.00 0.06 0.06 80 1007.3
20260506165824 65 184 5.0 7.0 0.00 0.06 0.06 79 1007.3
20260506165316 65 184 4.0 7.0 0.00 0.06 0.06 80 1007.3
20260506164850 65 173 4.0 9.0 0.00 0.06 0.06 80 1007.3
20260506164321 65 159 5.0 9.0 0.00 0.06 0.06 80 1007.2
20260506163814 65 176 6.0 11.0 0.00 0.06 0.06 79 1007.1
20260506163325 65 182 4.0 11.0 0.00 0.06 0.06 79 1007.3
20260506162820 65 180 5.0 9.0 0.00 0.06 0.06 78 1007.3
20260506162332 65 185 5.0 9.0 0.00 0.06 0.06 79 1007.1
20260506161823 65 184 6.0 9.0 0.00 0.06 0.06 78 1007.0
20260506161315 65 171 4.0 11.0 0.00 0.06 0.06 79 1007.1
20260506160847 65 180 4.0 11.0 0.00 0.06 0.06 79 1007.1
20260506160318 65 173 7.0 11.0 0.00 0.06 0.06 78 1007.1
20260506155829 65 184 7.0 14.0 0.00 0.06 0.06 78 1007.1
20260506155321 65 177 7.0 15.0 0.00 0.06 0.06 78 1007.0
20260506154813 65 176 5.0 9.0 0.00 0.06 0.06 79 1007.0
20260506154330 65 175 5.0 11.0 0.00 0.06 0.06 79 1007.0
20260506153822 65 178 8.0 12.0 0.00 0.06 0.06 78 1007.0
20260506153315 65 188 6.0 13.0 0.00 0.06 0.06 80 1007.0
20260506152827 65 162 7.0 13.0 0.00 0.06 0.06 80 1007.1
20260506152319 65 169 7.0 10.0 0.00 0.06 0.06 81 1007.1
20260506151831 65 163 6.0 10.0 0.00 0.06 0.06 80 1007.3
20260506151323 65 179 7.0 13.0 0.00 0.06 0.06 79 1007.0
20260506150814 65 160 5.0 13.0 0.00 0.06 0.06 81 1007.0
20260506150330 65 167 6.0 10.0 0.00 0.06 0.06 82 1007.1
20260506145820 64 167 7.0 14.0 0.00 0.06 0.06 84 1006.8
20260506145352 63 173 7.0 14.0 0.00 0.06 0.06 83 1007.0
20260506144823 63 180 7.0 16.0 0.00 0.06 0.06 85 1006.9
20260506144315 63 164 6.0 11.0 0.00 0.06 0.06 86 1007.0
20260506143827 62 172 8.0 11.0 0.00 0.06 0.06 85 1007.1
20260506143318 62 182 6.0 10.0 0.00 0.06 0.06 86 1007.1
20260506142830 61 163 5.0 11.0 0.00 0.06 0.06 88 1007.1
20260506142322 61 163 5.0 8.0 0.00 0.06 0.06 88 1007.2
20260506141818 60 158 3.0 9.0 0.00 0.06 0.06 89 1007.3
20260506141330 60 185 4.0 9.0 0.00 0.06 0.06 88 1007.1
20260506140822 60 149 6.0 9.0 0.00 0.06 0.06 88 1007.1
20260506140314 59 173 4.0 10.0 0.00 0.06 0.06 88 1007.1
20260506135824 59 169 5.0 10.0 0.01 0.06 0.06 88 1007.2
20260506135316 59 159 6.0 9.0 0.01 0.06 0.06 89 1007.3
20260506134829 59 175 5.0 9.0 0.01 0.06 0.06 89 1007.4
20260506134321 59 163 5.0 10.0 0.01 0.06 0.06 89 1007.6
20260506133838 59 166 3.0 7.0 0.01 0.06 0.06 88 1007.6
20260506133349 59 163 5.0 8.0 0.02 0.06 0.06 88 1007.7
20260506132820 59 163 4.0 8.0 0.02 0.06 0.06 88 1007.7
20260506132332 59 156 5.0 7.0 0.03 0.06 0.06 88 1007.8
20260506131825 59 184 5.0 9.0 0.03 0.06 0.06 88 1007.7
20260506131317 59 176 5.0 9.0 0.03 0.06 0.06 88 1007.5
20260506130829 59 143 5.0 9.0 0.03 0.06 0.06 88 1007.4
20260506130321 58 175 6.0 9.0 0.03 0.06 0.06 89 1007.3
20260506125831 58 165 5.0 9.0 0.03 0.05 0.05 88 1007.3
20260506125343 58 169 6.0 10.0 0.03 0.05 0.05 88 1007.3
20260506124838 58 164 6.0 12.0 0.03 0.05 0.05 88 1007.3
20260506124329 58 169 5.0 12.0 0.04 0.05 0.05 87 1007.4
20260506123822 59 183 4.0 10.0 0.04 0.05 0.05 87 1007.5
20260506123313 59 185 7.0 10.0 0.03 0.04 0.04 86 1007.5
20260506122825 59 153 5.0 9.0 0.03 0.04 0.04 86 1007.5
20260506122318 59 173 4.0 8.0 0.02 0.03 0.03 85 1007.6
20260506121830 59 173 4.0 8.0 0.02 0.03 0.03 85 1007.6
20260506121321 59 167 6.0 8.0 0.03 0.03 0.03 85 1007.7
20260506120818 59 167 4.0 7.0 0.03 0.03 0.03 84 1007.6
20260506120350 59 172 4.0 8.0 0.03 0.03 0.03 83 1007.7
20260506115818 59 171 4.0 8.0 0.02 0.02 0.02 82 1007.9
20260506115330 60 169 6.0 12.0 0.02 0.02 0.02 81 1007.7
20260506114842 60 159 5.0 12.0 0.02 0.02 0.02 80 1007.7
20260506114333 60 171 5.0 9.0 0.01 0.01 0.01 78 1007.8
20260506113825 60 175 6.0 9.0 0.01 0.01 0.01 78 1007.6
20260506113317 61 180 4.0 8.0 0.01 0.01 0.01 77 1007.7
20260506112829 61 173 3.0 9.0 0.01 0.01 0.01 74 1007.8
20260506112320 61 193 5.0 9.0 0.01 0.01 0.01 72 1007.8
20260506111816 62 190 3.0 8.0 0.01 0.01 0.01 71 1007.9
20260506111328 62 172 5.0 9.0 0.00 0.00 0.00 69 1007.8
20260506110821 63 171 3.0 8.0 0.00 0.00 0.00 68 1007.9
20260506110333 63 176 4.0 11.0 0.00 0.00 0.00 66 1007.8
20260506105823 63 175 4.0 7.0 0.00 0.00 0.00 64 1007.7
20260506105314 64 167 4.0 8.0 0.00 0.00 0.00 64 1007.7
20260506104825 64 182 5.0 10.0 0.00 0.00 0.00 60 1007.6
20260506104317 65 180 5.0 10.0 0.00 0.00 0.00 60 1007.4
20260506103813 65 183 7.0 10.0 0.00 0.00 0.00 60 1007.6
20260506103326 65 181 5.0 8.0 0.00 0.00 0.00 59 1007.5
20260506102818 65 184 4.0 12.0 0.00 0.00 0.00 59 1007.6
20260506102330 65 167 6.0 12.0 0.00 0.00 0.00 59 1007.5
20260506101823 65 178 3.0 12.0 0.00 0.00 0.00 60 1007.4
20260506101315 65 165 5.0 8.0 0.00 0.00 0.00 59 1007.3
20260506100826 65 180 6.0 8.0 0.00 0.00 0.00 58 1007.3
20260506100318 65 173 5.0 9.0 0.00 0.00 0.00 57 1007.3
20260506095832 65 211 5.0 10.0 0.00 0.00 0.00 56 1007.0
20260506095324 65 166 5.0 9.0 0.00 0.00 0.00 56 1007.0
20260506094816 65 175 5.0 9.0 0.00 0.00 0.00 56 1007.1
20260506094328 65 166 5.0 12.0 0.00 0.00 0.00 56 1007.0
20260506093819 66 164 5.0 10.0 0.00 0.00 0.00 56 1007.1
20260506093331 66 165 6.0 10.0 0.00 0.00 0.00 54 1007.1
20260506092824 66 178 6.0 11.0 0.00 0.00 0.00 53 1007.1
20260506092316 66 182 5.0 11.0 0.00 0.00 0.00 53 1007.1
20260506091848 66 174 7.0 11.0 0.00 0.00 0.00 52 1007.1
20260506091323 66 190 5.0 11.0 0.00 0.00 0.00 53 1007.3
20260506090815 66 164 7.0 10.0 0.00 0.00 0.00 53 1007.4
20260506090328 66 180 4.0 9.0 0.00 0.00 0.00 53 1007.3
20260506085817 66 178 4.0 11.0 0.00 0.00 0.00 53 1007.3
20260506085329 66 186 6.0 12.0 0.00 0.00 0.00 52 1007.2
20260506084821 67 174 7.0 12.0 0.00 0.00 0.00 52 1007.3
20260506084333 67 163 6.0 11.0 0.00 0.00 0.00 52 1007.4
20260506083825 67 181 8.0 15.0 0.00 0.00 0.00 52 1007.4
20260506083320 67 177 6.0 11.0 0.00 0.00 0.00 52 1007.4
20260506082832 67 186 5.0 12.0 0.00 0.00 0.00 51 1007.5
20260506082323 67 171 8.0 12.0 0.00 0.00 0.00 51 1007.5
20260506081816 67 168 7.0 10.0 0.00 0.00 0.00 51 1007.6
20260506081328 67 164 7.0 13.0 0.00 0.00 0.00 50 1007.5
20260506080819 67 151 9.0 20.0 0.00 0.00 0.00 50 1007.4
20260506080331 67 153 7.0 20.0 0.00 0.00 0.00 50 1007.4
20260506073324 68 171 9.0 17.0 0.00 0.00 0.00 49 1007.4
20260506072835 68 163 7.0 17.0 0.00 0.00 0.00 49 1007.5
20260506072326 68 188 12.0 17.0 0.00 0.00 0.00 48 1007.5
20260506071818 68 164 9.0 19.0 0.00 0.00 0.00 49 1007.4
20260506071314 67 163 9.0 13.0 0.00 0.00 0.00 49 1007.5
20260506070846 67 158 6.0 15.0 0.00 0.00 0.00 48 1007.5
20260506070316 68 171 9.0 15.0 0.00 0.00 0.00 48 1007.6
20260506062331 68 178 10.0 17.0 0.00 0.00 0.00 47 1008.1
20260506061823 68 184 9.0 17.0 0.00 0.00 0.00 47 1008.2
20260506061314 68 169 10.0 15.0 0.00 0.00 0.00 47 1008.2
20260506060826 68 180 7.0 15.0 0.00 0.00 0.00 47 1008.3
20260506060338 68 188 7.0 16.0 0.00 0.00 0.00 47 1008.3
20260506051316 68 163 8.0 16.0 0.00 0.00 0.00 46 1009.1
20260506050849 68 180 8.0 19.0 0.00 0.00 0.00 46 1009.2
20260506050320 68 155 8.0 19.0 0.00 0.00 0.00 45 1009.2
20260506044819 69 157 6.0 17.0 0.00 0.00 0.00 44 1009.1
20260506044331 69 195 8.0 17.0 0.00 0.00 0.00 44 1009.0
20260506043843 69 170 5.0 10.0 0.00 0.00 0.00 44 1009.1
20260506043313 69 161 6.0 13.0 0.00 0.00 0.00 43 1009.0
20260506042825 69 152 7.0 13.0 0.00 0.00 0.00 43 1009.2
20260506042317 69 163 6.0 12.0 0.00 0.00 0.00 43 1009.1
20260506041829 69 177 7.0 16.0 0.00 0.00 0.00 43 1009.1
20260506041321 69 145 5.0 12.0 0.00 0.00 0.00 43 1009.2
20260506040853 69 203 7.0 12.0 0.00 0.00 0.00 42 1009.1
20260506040324 70 166 6.0 14.0 0.00 0.00 0.00 42 1009.1
20260506035818 70 171 8.0 14.0 0.00 0.00 0.00 42 1009.1
20260506035331 70 175 7.0 11.0 0.00 0.00 0.00 42 1009.2
20260506034823 70 170 6.0 18.0 0.00 0.00 0.00 42 1009.1
20260506034316 70 182 8.0 18.0 0.00 0.00 0.00 41 1009.1
20260506033828 70 183 10.0 15.0 0.00 0.00 0.00 41 1009.0
20260506033319 70 144 9.0 14.0 0.00 0.00 0.00 41 1009.1
20260506032830 70 190 8.0 16.0 0.00 0.00 0.00 40 1009.1
20260506032322 70 157 8.0 17.0 0.00 0.00 0.00 41 1009.1
20260506031818 70 173 10.0 16.0 0.00 0.00 0.00 40 1009.2
20260506031330 71 186 10.0 17.0 0.00 0.00 0.00 40 1009.2
20260506030822 71 188 11.0 24.0 0.00 0.00 0.00 39 1009.2
20260506030313 71 172 13.0 24.0 0.00 0.00 0.00 39 1009.2
20260506025845 71 174 14.0 24.0 0.00 0.00 0.00 40 1009.1
20260506025335 71 146 9.0 24.0 0.00 0.00 0.00 41 1009.2
20260506024826 71 150 9.0 24.0 0.00 0.00 0.00 40 1009.2
20260506024318 71 173 10.0 17.0 0.00 0.00 0.00 40 1009.3
20260506023830 71 182 10.0 17.0 0.00 0.00 0.00 39 1009.2
20260506023326 71 173 9.0 18.0 0.00 0.00 0.00 40 1009.2
20260506022837 71 180 11.0 18.0 0.00 0.00 0.00 39 1009.2
20260506022328 71 163 8.0 17.0 0.00 0.00 0.00 40 1009.2
20260506021819 71 206 7.0 16.0 0.00 0.00 0.00 40 1009.2
20260506021352 71 173 11.0 18.0 0.00 0.00 0.00 40 1009.2
20260506020823 71 165 9.0 17.0 0.00 0.00 0.00 40 1009.2
20260506020315 71 188 8.0 16.0 0.00 0.00 0.00 40 1009.2
20260506015826 71 181 7.0 16.0 0.00 0.00 0.00 39 1009.2
20260506015318 71 182 9.0 18.0 0.00 0.00 0.00 39 1009.0
20260506014829 72 186 10.0 20.0 0.00 0.00 0.00 39 1009.1
20260506014324 71 186 12.0 20.0 0.00 0.00 0.00 39 1009.2
20260506013836 71 165 7.0 19.0 0.00 0.00 0.00 39 1009.1
20260506013327 71 182 9.0 20.0 0.00 0.00 0.00 38 1009.1
20260506012839 71 178 11.0 17.0 0.00 0.00 0.00 39 1009.2
20260506012330 71 167 9.0 19.0 0.00 0.00 0.00 38 1009.1
20260506011842 71 164 10.0 19.0 0.00 0.00 0.00 38 1009.1
20260506011313 71 156 9.0 19.0 0.00 0.00 0.00 39 1009.0
20260506010825 72 193 8.0 22.0 0.00 0.00 0.00 38 1009.0
20260506010317 72 203 9.0 22.0 0.00 0.00 0.00 38 1008.9
20260506005848 72 149 9.0 21.0 0.00 0.00 0.00 37 1008.9
20260506005322 72 172 11.0 21.0 0.00 0.00 0.00 37 1008.9
20260506004814 72 190 9.0 15.0 0.00 0.00 0.00 37 1008.8
20260506004327 72 172 7.0 16.0 0.00 0.00 0.00 36 1008.8
20260506003818 72 170 8.0 16.0 0.00 0.00 0.00 36 1008.8
20260506003350 72 153 8.0 19.0 0.00 0.00 0.00 36 1008.7
20260506002820 72 168 8.0 18.0 0.00 0.00 0.00 35 1008.5
20260506002352 72 188 10.0 19.0 0.00 0.00 0.00 36 1008.5
20260506001822 72 176 10.0 19.0 0.00 0.00 0.00 36 1008.5
20260506001314 73 167 7.0 17.0 0.00 0.00 0.00 37 1008.4
20260506000825 73 175 7.0 21.0 0.00 0.00 0.00 37 1008.4
20260506000341 73 172 10.0 21.0 0.00 0.00 0.00 37 1008.4
20260505235831 73 166 9.0 16.0 0.00 0.00 0.00 37 1008.4
20260505235322 73 178 10.0 22.0 0.00 0.00 0.00 38 1008.3
20260505234813 74 146 9.0 22.0 0.00 0.00 0.00 38 1008.3
20260505234327 74 165 11.0 16.0 0.00 0.00 0.00 38 1008.1
20260505233839 74 177 9.0 20.0 0.00 0.00 0.00 39 1008.2
20260505233329 74 153 8.0 20.0 0.00 0.00 0.00 39 1008.1
20260505232841 74 154 12.0 20.0 0.00 0.00 0.00 38 1008.1
20260505232332 74 178 10.0 16.0 0.00 0.00 0.00 38 1008.3
20260505231824 74 187 9.0 23.0 0.00 0.00 0.00 37 1008.2
20260505231340 74 160 12.0 23.0 0.00 0.00 0.00 38 1008.1
20260505230831 74 148 11.0 16.0 0.00 0.00 0.00 37 1008.1
20260505230323 75 180 9.0 14.0 0.00 0.00 0.00 36 1008.2
20260505225813 75 170 8.0 13.0 0.00 0.00 0.00 37 1008.2
20260505225326 75 167 8.0 14.0 0.00 0.00 0.00 35 1008.1
20260505224838 75 190 9.0 21.0 0.00 0.00 0.00 35 1008.1
20260505224350 75 157 10.0 21.0 0.00 0.00 0.00 34 1008.2
20260505223820 75 188 7.0 16.0 0.00 0.00 0.00 37 1008.3
20260505223334 75 164 7.0 15.0 0.00 0.00 0.00 35 1008.2
20260505222825 75 163 8.0 18.0 0.00 0.00 0.00 36 1008.4
20260505222320 76 173 8.0 20.0 0.00 0.00 0.00 35 1008.4
20260505221813 76 169 10.0 19.0 0.00 0.00 0.00 34 1008.3
20260505221326 76 160 8.0 17.0 0.00 0.00 0.00 36 1008.2
20260505220818 76 151 11.0 19.0 0.00 0.00 0.00 35 1008.2
20260505220329 76 157 8.0 19.0 0.00 0.00 0.00 35 1008.3
20260505215820 76 182 9.0 16.0 0.00 0.00 0.00 36 1008.2
20260505215332 76 175 9.0 22.0 0.00 0.00 0.00 34 1008.1
20260505214824 76 178 13.0 22.0 0.00 0.00 0.00 33 1008.0
20260505214320 77 167 14.0 22.0 0.00 0.00 0.00 34 1008.0
20260505213831 77 167 9.0 20.0 0.00 0.00 0.00 37 1008.1
20260505213323 76 158 11.0 19.0 0.00 0.00 0.00 36 1008.1
20260505212816 76 188 9.0 19.0 0.00 0.00 0.00 36 1008.1